Regional Weather Roundup
Issued by NWS

Home | Current Version | Previous Version | Text Only | Print | Product List | Glossary Off
Versions: 1 2 3 4 5 6 7 8 9 10 11 12 13 14 15 16 17 18 19 20 21 22 23 24 25 26 27 28 29 30 31 32 33 34 35 36 37 38 39 40 41 42 43 44 45 46 47 48 49 50

000
ASUS43 KLMK 290702
RWRKY
KENTUCKY REGIONAL WEATHER ROUNDUP
NATIONAL WEATHER SERVICE LOUISVILLE KY
300 AM EDT FRI MAY 29 2015

NOTE "FAIR" INDICATES FEW OR NO CLOUDS BELOW 12,000 FEET
WITH NO SIGNIFICANT WEATHER AND/OR OBSTRUCTIONS TO VISIBILITY.

KYZ001>023-026-027-061>063-070>075-290800-
WESTERN AND SOUTH CENTRAL KENTUCKY

CITY           SKY/WX    TMP DP  RH WIND       PRES   REMARKS
PADUCAH        CLEAR     69  65  86 S3        30.05F
HENDERSON      PTCLDY    70  64  83 CALM      30.06F
OWENSBORO      CLEAR     70  66  86 SE3       30.08F
HOPKINSVILLE   PTCLDY    71  66  86 S6        30.08F
BOWLING GREEN  CLEAR     71  64  78 S8        30.11S
GLASGOW        NOT AVBL
$$

KYZ024-025-028>034-038-045-046-053-290800-
NORTH CENTRAL KENTUCKY

CITY           SKY/WX    TMP DP  RH WIND       PRES   REMARKS
LOUISVILLE/SDF PTCLDY    69  63  81 CALM      30.10F
LOUISVILLE/LOU CLEAR     67  64  90 CALM      30.11F
FORT KNOX      CLEAR     64  62  93 E5        30.09S
$$

KYZ035>037-039>044-047>052-055>060-089>105-290800-
NORTHEAST KENTUCKY

CITY           SKY/WX    TMP DP  RH WIND       PRES   REMARKS
LEXINGTON      PTCLDY    67  66  97 SE5       30.13F
COVINGTON      LGT RAIN  69  65  86 S8        30.14S
FRANKFORT      MOCLDY    67  64  90 SE3       30.11F
$$

KYZ054-064>069-076>088-106>120-290800-
SOUTHEAST KENTUCKY

CITY           SKY/WX    TMP DP  RH WIND       PRES   REMARKS
JACKSON        MOCLDY    68  63  84 SE3       30.16F
LONDON         PTCLDY    66  62  87 CALM      30.16S FOG
SOMERSET       NOT AVBL
MIDDLESBORO    CLEAR     65  65 100 CALM      30.17F
MONTICELLO     SUNNY     66  65  97 CALM      30.17F
$$




USA.gov is the U.S. government's official web portal to all federal, state and local government web resources and services.